This is the latest recevied weather packets stored in our database for station/object W6JCZ-13. If no packets are shown the sender has not sent any weather packets the latest 10 day(s).
| Time | Temp. | Humidity | Pressure | Rain* | Wind** | Luminosity | Snow |
|---|---|---|---|---|---|---|---|
| 1788140417 | 29.44° C | 36% | 1007.4 hPa | 0 mm | - | - | - |
| 1788139817 | 30° C | 36% | 1007.4 hPa | 0 mm | - | - | - |
| 1788139217 | 30.56° C | 36% | 1007.5 hPa | 0 mm | - | - | - |
| 1788138617 | 31.11° C | 33% | 1007.5 hPa | 0 mm | - | - | - |
| 1788138017 | 31.67° C | 30% | 1007.6 hPa | 0 mm | - | - | - |
| 1788137417 | 31.67° C | 27% | 1007.6 hPa | 0 mm | - | - | - |
| 1788136816 | 31.67° C | 26% | 1007.6 hPa | 0 mm | - | - | - |
| 1788136217 | 31.67° C | 27% | 1007.6 hPa | 0 mm | - | - | - |
| 1788135617 | 31.67° C | 28% | 1007.7 hPa | 0 mm | - | - | - |
| 1788135017 | 32.22° C | 29% | 1007.8 hPa | 0 mm | - | - | - |
| 1788134417 | 32.22° C | 27% | 1007.9 hPa | 0 mm | - | - | - |
| 1788133817 | 32.22° C | 29% | 1008 hPa | 0 mm | - | - | - |
| 1788133217 | 32.22° C | 28% | 1008.1 hPa | 0 mm | - | - | - |
| 1788132617 | 32.22° C | 31% | 1008.2 hPa | 0 mm | - | - | - |
| 1788132017 | 32.22° C | 32% | 1008.3 hPa | 0 mm | - | - | - |
| 1788131416 | 32.22° C | 33% | 1008.4 hPa | 0 mm | - | - | - |
| 1788130817 | 32.22° C | 32% | 1008.5 hPa | 0 mm | - | - | - |
| 1788130217 | 32.22° C | 32% | 1008.6 hPa | 0 mm | - | - | - |
| 1788129617 | 32.78° C | 28% | 1008.7 hPa | 0 mm | - | - | - |
| 1788129017 | 31.67° C | 27% | 1008.8 hPa | 0 mm | - | - | - |
| 1788128416 | 32.22° C | 29% | 1009 hPa | 0 mm | - | - | - |
| 1788127816 | 31.67° C | 30% | 1009.1 hPa | 0 mm | - | - | - |
| 1788127216 | 31.67° C | 31% | 1009.2 hPa | 0 mm | - | - | - |
| 1788126617 | 31.11° C | 30% | 1009.4 hPa | 0 mm | - | - | - |
| 1788126016 | 31.11° C | 31% | 1009.6 hPa | 0 mm | - | - | - |
* Rain latest hour (hover to see other rain measurements)
** Current wind speed in m/s (hover to see current wind gust speed)